GW6432 Weather Reports


time (UTC)temp
C
wind
direction
speed
KPH
gust
KPH
rain 1hr
cm
rain 24hr
cm
rain mn
cm
humidity
%
barometer
mb
20260506130046 23 122 0.0 4.8 0.00 0.00 0.00 92 1009.8
20260506125537 23 219 1.6 6.4 0.00 0.00 0.00 92 1009.8
20260506125035 23 0 1.6 6.4 0.00 0.00 0.00 92 1009.8
20260506124545 23 0 0.0 0.0 0.00 0.00 0.00 92 1009.7
20260506124035 23 0 0.0 0.0 0.00 0.00 0.00 91 1009.7
20260506123535 23 0 0.0 0.0 0.00 0.00 0.00 91 1009.7
20260506123051 23 0 0.0 0.0 0.00 0.00 0.00 91 1009.6
20260506122534 23 0 0.0 0.0 0.00 0.00 0.00 91 1009.5
20260506122036 23 0 0.0 0.0 0.00 0.00 0.00 91 1009.6
20260506121548 23 0 0.0 0.0 0.00 0.00 0.00 91 1009.6
20260506121035 23 0 0.0 0.0 0.00 0.00 0.00 91 1009.5
20260506120535 23 0 0.0 0.0 0.00 0.00 0.00 91 1009.6
20260506120048 23 0 0.0 0.0 0.00 0.00 0.00 91 1009.6
20260506115535 23 0 0.0 1.6 0.00 0.00 0.00 91 1009.6
20260506115036 23 0 0.0 3.2 0.00 0.00 0.00 91 1009.5
20260506114553 23 214 0.0 3.2 0.00 0.00 0.00 90 1009.4
20260506114034 23 214 0.0 3.2 0.00 0.00 0.00 90 1009.4
20260506113535 23 0 0.0 3.2 0.00 0.00 0.00 90 1009.4
20260506113052 23 0 0.0 4.8 0.00 0.00 0.00 90 1009.4
20260506112536 23 0 0.0 4.8 0.00 0.00 0.00 90 1009.4
20260506112035 23 214 0.0 4.8 0.00 0.00 0.00 90 1009.3
20260506111549 23 0 0.0 4.8 0.00 0.00 0.00 90 1009.3
20260506111036 23 0 0.0 6.4 0.00 0.00 0.00 90 1009.2
20260506110535 23 0 0.0 6.4 0.00 0.00 0.00 90 1009.2
20260506110051 23 214 1.6 6.4 0.00 0.00 0.00 90 1009.0
20260506105535 23 138 0.0 4.8 0.00 0.00 0.00 90 1008.9
20260506105037 23 0 0.0 3.2 0.00 0.00 0.00 90 1008.9
20260506104608 23 0 0.0 4.8 0.00 0.00 0.00 90 1009.0
20260506104034 23 0 0.0 4.8 0.00 0.00 0.00 90 1008.9
20260506103535 23 0 0.0 4.8 0.00 0.00 0.00 90 1008.9
20260506103047 23 138 0.0 4.8 0.00 0.00 0.00 90 1008.9
20260506102536 23 138 0.0 3.2 0.00 0.00 0.00 90 1008.8
20260506102035 23 0 0.0 3.2 0.00 0.00 0.00 90 1008.7
20260506101549 23 0 0.0 4.8 0.00 0.00 0.00 90 1008.7
20260506101035 23 138 0.0 4.8 0.00 0.00 0.00 90 1008.5
20260506100535 23 232 0.0 4.8 0.00 0.00 0.00 90 1008.6
20260506100051 23 0 0.0 4.8 0.00 0.00 0.00 90 1008.5
20260506095552 23 195 1.6 9.7 0.00 0.00 0.00 90 1008.5
20260506095035 23 143 3.2 9.7 0.00 0.00 0.00 90 1008.4
20260506094550 23 159 0.0 6.4 0.00 0.00 0.00 90 1008.3
20260506094035 23 159 1.6 6.4 0.00 0.00 0.00 90 1008.5
20260506093537 23 215 1.6 4.8 0.00 0.00 0.00 90 1008.5
20260506093052 23 154 0.0 8.0 0.00 0.00 0.00 90 1008.4
20260506092535 23 170 1.6 8.0 0.00 0.00 0.00 90 1008.4
20260506092035 23 171 1.6 9.7 0.00 0.00 0.00 90 1008.4
20260506091548 23 192 3.2 9.7 0.00 0.00 0.00 90 1008.5
20260506091037 23 171 1.6 17.7 0.00 0.00 0.00 90 1008.3
20260506090536 23 215 3.2 17.7 0.00 0.00 0.00 90 1008.2
20260506090049 23 171 3.2 12.9 0.00 0.00 0.00 90 1008.3
20260506085535 23 166 4.8 12.9 0.00 0.00 0.00 90 1008.2
20260506085035 23 153 3.2 12.9 0.00 0.00 0.00 90 1008.3
20260506084547 23 178 4.8 12.9 0.00 0.00 0.00 90 1008.2
20260506084037 23 156 4.8 12.9 0.00 0.00 0.00 90 1008.1
20260506083536 23 136 1.6 17.7 0.00 0.00 0.00 90 1008.1
20260506083048 23 202 6.4 17.7 0.00 0.00 0.00 90 1008.1
20260506082536 23 200 6.4 16.1 0.00 0.00 0.00 90 1008.1
20260506082035 23 165 4.8 12.9 0.00 0.00 0.00 90 1008.1
20260506081557 23 171 4.8 16.1 0.00 0.00 0.00 90 1008.0
20260506081036 23 145 6.4 17.7 0.00 0.00 0.00 90 1007.9
20260506080535 23 176 8.0 17.7 0.00 0.00 0.00 90 1008.0
20260506073050 23 132 6.4 22.5 0.00 0.00 0.00 90 1008.3
20260506072536 23 225 8.0 14.5 0.00 0.00 0.00 91 1008.3
20260506072036 23 163 4.8 14.5 0.00 0.00 0.00 91 1008.4
20260506071547 23 203 8.0 14.5 0.00 0.00 0.00 91 1008.4
20260506071035 23 164 6.4 14.5 0.00 0.00 0.00 90 1008.6
20260506070537 23 213 4.8 20.9 0.00 0.00 0.00 90 1008.4
20260506062035 23 145 3.2 11.3 0.00 0.00 0.00 89 1008.5
20260506061547 23 154 3.2 14.5 0.00 0.00 0.00 89 1008.6
20260506061035 23 89 4.8 14.5 0.00 0.00 0.00 89 1008.7
20260506060535 23 165 4.8 11.3 0.00 0.00 0.00 89 1008.9
20260506051035 24 177 9.7 25.7 0.00 0.00 0.00 87 1008.7
20260506050535 24 257 6.4 19.3 0.00 0.00 0.00 87 1008.7
20260506045034 24 181 4.8 17.7 0.00 0.00 0.00 87 1008.7
20260506044603 24 175 6.4 17.7 0.00 0.00 0.00 87 1008.7
20260506044034 24 165 6.4 17.7 0.00 0.00 0.00 86 1008.7
20260506043535 24 202 6.4 17.7 0.00 0.00 0.00 86 1008.7
20260506043056 24 132 8.0 17.7 0.00 0.00 0.00 86 1008.7
20260506042536 24 163 6.4 16.1 0.00 0.00 0.00 86 1008.6
20260506042037 24 171 4.8 16.1 0.00 0.00 0.00 85 1008.6
20260506041547 24 138 4.8 14.5 0.00 0.00 0.00 85 1008.5
20260506041035 25 136 6.4 14.5 0.00 0.00 0.00 85 1008.3
20260506040535 25 139 6.4 19.3 0.00 0.00 0.00 85 1008.2
20260506040056 25 140 6.4 19.3 0.00 0.00 0.00 85 1008.2
20260506035535 25 145 6.4 19.3 0.00 0.00 0.00 84 1008.1
20260506035037 25 167 8.0 19.3 0.00 0.00 0.00 84 1008.0
20260506034552 25 173 8.0 19.3 0.00 0.00 0.00 84 1008.0
20260506034037 25 161 8.0 20.9 0.00 0.00 0.00 84 1007.9
20260506033534 25 92 9.7 20.9 0.00 0.00 0.00 84 1007.7
20260506033048 25 166 8.0 17.7 0.00 0.00 0.00 83 1007.8
20260506032536 25 96 6.4 17.7 0.00 0.00 0.00 83 1007.9
20260506032037 25 118 6.4 17.7 0.00 0.00 0.00 83 1007.8
20260506031550 25 94 6.4 16.1 0.00 0.00 0.00 83 1007.7
20260506031038 25 158 8.0 16.1 0.00 0.00 0.00 83 1007.5
20260506030535 25 138 8.0 16.1 0.00 0.00 0.00 83 1007.6
20260506030046 25 231 6.4 16.1 0.00 0.00 0.00 83 1007.5
20260506025538 25 157 4.8 22.5 0.00 0.00 0.00 83 1007.4
20260506025036 25 198 6.4 22.5 0.00 0.00 0.00 83 1007.4
20260506024547 25 195 4.8 16.1 0.00 0.00 0.00 82 1007.3
20260506024036 25 183 6.4 16.1 0.00 0.00 0.00 82 1007.2
20260506023535 25 232 6.4 17.7 0.00 0.00 0.00 82 1007.1
20260506023046 25 165 6.4 19.3 0.00 0.00 0.00 82 1007.1
20260506022536 25 224 8.0 19.3 0.00 0.00 0.00 82 1007.1
20260506022036 25 172 4.8 19.3 0.00 0.00 0.00 82 1007.1
20260506021557 25 149 6.4 19.3 0.00 0.00 0.00 82 1007.0
20260506021036 25 205 6.4 14.5 0.00 0.00 0.00 82 1007.1
20260506020535 25 186 4.8 12.9 0.00 0.00 0.00 82 1007.1
20260506020051 25 208 4.8 14.5 0.00 0.00 0.00 82 1007.0
20260506015536 25 184 6.4 14.5 0.00 0.00 0.00 82 1007.1
20260506015036 25 165 4.8 16.1 0.00 0.00 0.00 81 1007.1
20260506014547 25 186 4.8 16.1 0.00 0.00 0.00 81 1006.9
20260506014039 25 164 4.8 11.3 0.00 0.00 0.00 81 1006.9
20260506013536 26 219 3.2 17.7 0.00 0.00 0.00 80 1006.8
20260506013052 26 119 3.2 17.7 0.00 0.00 0.00 80 1006.8
20260506012539 26 197 4.8 16.1 0.00 0.00 0.00 80 1006.6
20260506012036 26 200 6.4 16.1 0.00 0.00 0.00 80 1006.5
20260506011550 26 153 3.2 16.1 0.00 0.00 0.00 79 1006.4
20260506011040 26 152 4.8 16.1 0.00 0.00 0.00 79 1006.2
20260506010537 26 138 4.8 22.5 0.00 0.00 0.00 79 1006.2
20260506010056 26 140 8.0 22.5 0.00 0.00 0.00 79 1006.1
20260506005537 26 157 8.0 19.3 0.00 0.00 0.00 79 1006.0
20260506005039 26 173 8.0 19.3 0.00 0.00 0.00 78 1005.9
20260506004548 26 199 6.4 19.3 0.00 0.00 0.00 78 1005.9
20260506004037 26 141 8.0 19.3 0.00 0.00 0.00 78 1005.9
20260506003538 27 173 8.0 19.3 0.00 0.00 0.00 78 1005.8
20260506003059 27 234 6.4 22.5 0.00 0.00 0.00 77 1005.9
20260506002536 27 153 8.0 27.4 0.00 0.00 0.00 77 1005.8
20260506002036 27 185 8.0 27.4 0.00 0.00 0.00 76 1005.8
20260506001551 27 217 8.0 17.7 0.00 0.00 0.00 76 1005.7
20260506001037 27 174 8.0 17.7 0.00 0.00 0.00 76 1005.9
20260506000537 27 63 6.4 17.7 0.00 0.00 0.00 76 1005.9
20260506000046 27 207 6.4 17.7 0.00 0.00 0.00 76 1005.9
20260505235536 27 211 8.0 17.7 0.00 0.00 0.00 76 1005.8
20260505235037 27 167 8.0 17.7 0.00 0.00 0.00 75 1005.8
20260505234606 27 197 8.0 24.1 0.00 0.00 0.00 75 1005.8
20260505234035 28 206 9.7 25.7 0.00 0.00 0.00 74 1005.9
20260505233536 28 199 11.3 25.7 0.00 0.00 0.00 74 1005.8
20260505233053 28 173 9.7 22.5 0.00 0.00 0.00 74 1005.8
20260505232540 28 155 8.0 22.5 0.00 0.00 0.00 74 1005.8
20260505232034 28 175 9.7 22.5 0.00 0.00 0.00 73 1005.9
20260505231552 28 154 8.0 19.3 0.00 0.00 0.00 73 1005.8
20260505231040 28 196 9.7 19.3 0.00 0.00 0.00 73 1005.7
20260505230537 28 175 8.0 22.5 0.00 0.00 0.00 73 1005.6
20260505230049 28 216 9.7 22.5 0.00 0.00 0.00 72 1005.7
20260505225539 28 194 9.7 20.9 0.00 0.00 0.00 72 1005.7
20260505225037 28 217 8.0 25.7 0.00 0.00 0.00 72 1005.7
20260505224545 28 253 9.7 25.7 0.00 0.00 0.00 71 1005.9
20260505224036 29 138 6.4 25.7 0.00 0.00 0.00 72 1005.9
20260505223539 29 174 9.7 25.7 0.00 0.00 0.00 71 1005.9
20260505223102 29 248 8.0 16.1 0.00 0.00 0.00 71 1005.8
20260505222537 29 172 6.4 16.1 0.00 0.00 0.00 72 1005.8
20260505222037 29 187 8.0 16.1 0.00 0.00 0.00 71 1005.8
20260505221545 29 172 6.4 19.3 0.00 0.00 0.00 71 1005.8
20260505221038 29 196 8.0 19.3 0.00 0.00 0.00 70 1005.8
20260505220537 29 137 6.4 19.3 0.00 0.00 0.00 70 1005.8
20260505220049 30 174 6.4 20.9 0.00 0.00 0.00 70 1006.0
20260505215536 30 129 8.0 20.9 0.00 0.00 0.00 70 1006.0
20260505215037 30 180 8.0 19.3 0.00 0.00 0.00 70 1005.9
20260505214556 30 186 6.4 19.3 0.00 0.00 0.00 71 1005.9
20260505214035 30 175 8.0 19.3 0.00 0.00 0.00 70 1006.0
20260505213536 30 209 6.4 19.3 0.00 0.00 0.00 71 1006.0
20260505213048 30 93 6.4 19.3 0.00 0.00 0.00 70 1006.1
20260505212535 30 213 8.0 17.7 0.00 0.00 0.00 70 1006.1
20260505212038 30 206 4.8 19.3 0.00 0.00 0.00 71 1006.2
20260505211552 30 182 8.0 19.3 0.00 0.00 0.00 68 1006.2
20260505211036 30 205 6.4 16.1 0.00 0.00 0.00 69 1006.4
20260505210535 30 202 6.4 16.1 0.00 0.00 0.00 71 1006.4
20260505210047 30 159 6.4 19.3 0.00 0.00 0.00 70 1006.6
20260505205536 30 234 9.7 19.3 0.00 0.00 0.00 69 1006.6
20260505205036 30 161 4.8 16.1 0.00 0.00 0.00 71 1006.7
20260505204546 30 223 4.8 22.5 0.00 0.00 0.00 71 1006.8
20260505204036 30 200 8.0 22.5 0.00 0.00 0.00 70 1006.8
20260505203536 30 213 11.3 24.1 0.00 0.00 0.00 69 1006.8
20260505203100 30 143 9.7 24.1 0.00 0.00 0.00 71 1007.0
20260505202536 30 209 8.0 22.5 0.00 0.00 0.00 71 1007.0
20260505202036 29 185 6.4 20.9 0.00 0.00 0.00 71 1006.9
20260505201548 29 235 9.7 20.9 0.00 0.00 0.00 70 1007.0
20260505201037 29 213 8.0 19.3 0.00 0.00 0.00 71 1007.1
20260505200536 29 209 8.0 19.3 0.00 0.00 0.00 69 1007.2
20260505200048 30 171 8.0 19.3 0.00 0.00 0.00 69 1007.3
20260505195539 30 224 4.8 17.7 0.00 0.00 0.00 71 1007.3
20260505195036 29 352 4.8 17.7 0.00 0.00 0.00 71 1007.3
20260505194547 29 212 8.0 16.1 0.00 0.00 0.00 71 1007.5
20260505194037 29 242 6.4 16.1 0.00 0.00 0.00 71 1007.4
20260505193535 28 105 4.8 16.1 0.00 0.00 0.00 72 1007.5
20260505193045 28 153 6.4 19.3 0.00 0.00 0.00 72 1007.6
20260505192540 28 124 6.4 20.9 0.00 0.00 0.00 72 1007.7
20260505192036 28 144 8.0 20.9 0.00 0.00 0.00 72 1007.7
20260505191551 28 311 8.0 22.5 0.00 0.00 0.00 71 1007.9
20260505191037 28 116 8.0 22.5 0.00 0.00 0.00 72 1007.8
20260505190536 28 217 6.4 16.1 0.00 0.00 0.00 72 1007.8
20260505190053 28 148 4.8 19.3 0.00 0.00 0.00 72 1007.7
20260505185542 28 196 6.4 20.9 0.00 0.00 0.00 72 1007.8
20260505185037 28 243 6.4 24.1 0.00 0.00 0.00 72 1007.7
20260505184552 28 198 9.7 24.1 0.00 0.00 0.00 71 1007.8
20260505184037 28 227 9.7 19.3 0.00 0.00 0.00 71 1007.8
20260505183537 28 33 6.4 20.9 0.00 0.00 0.00 72 1007.8
20260505183048 28 192 8.0 20.9 0.00 0.00 0.00 72 1007.9
20260505182540 28 202 4.8 16.1 0.00 0.00 0.00 74 1007.9
20260505182037 28 187 8.0 20.9 0.00 0.00 0.00 75 1008.0
20260505181544 28 230 9.7 20.9 0.00 0.00 0.00 74 1008.0
20260505181041 28 146 8.0 20.9 0.00 0.00 0.00 75 1008.0
20260505180541 27 214 9.7 20.9 0.00 0.00 0.00 74 1008.0
20260505180048 27 192 8.0 19.3 0.00 0.00 0.00 74 1008.2
20260505175540 27 166 9.7 19.3 0.00 0.00 0.00 75 1008.3
20260505175037 27 145 11.3 19.3 0.00 0.00 0.00 75 1008.2
20260505174553 27 170 8.0 27.4 0.00 0.00 0.00 77 1008.3
20260505174037 27 145 6.4 27.4 0.00 0.00 0.00 78 1008.4
20260505173537 27 195 9.7 27.4 0.00 0.00 0.00 78 1008.5
20260505173047 27 211 8.0 19.3 0.00 0.00 0.00 79 1008.6
20260505172534 26 235 6.4 19.3 0.00 0.00 0.00 79 1008.7
20260505172033 26 231 4.8 19.3 0.00 0.00 0.00 79 1008.7
20260505171547 26 218 4.8 19.3 0.00 0.00 0.00 79 1008.8
20260505171037 26 222 6.4 17.7 0.00 0.00 0.00 80 1008.9
20260505170537 26 149 4.8 17.7 0.00 0.00 0.00 81 1008.9
20260505170047 26 182 4.8 24.1 0.00 0.00 0.00 81 1008.9
20260505165534 26 128 6.4 25.7 0.00 0.00 0.00 81 1008.8
20260505165034 26 122 9.7 27.4 0.00 0.00 0.00 82 1008.8
20260505164548 25 128 8.0 27.4 0.00 0.00 0.00 83 1008.9
20260505164034 25 126 8.0 19.3 0.00 0.00 0.00 83 1008.8
20260505163537 25 213 4.8 14.5 0.00 0.00 0.00 84 1008.9
20260505163052 25 200 4.8 14.5 0.00 0.00 0.00 85 1008.9
20260505162541 25 212 4.8 16.1 0.00 0.00 0.00 85 1008.9
20260505162037 25 127 4.8 16.1 0.00 0.00 0.00 85 1008.9
20260505161548 24 235 3.2 14.5 0.00 0.00 0.00 86 1008.9
20260505161036 24 223 4.8 14.5 0.00 0.00 0.00 86 1009.0
20260505160537 24 241 4.8 14.5 0.00 0.00 0.00 86 1009.1
20260505153051 23 198 6.4 14.5 0.00 0.00 0.00 88 1008.9
20260505152534 23 187 4.8 12.9 0.00 0.00 0.00 88 1008.9
20260505152035 23 206 3.2 19.3 0.00 0.00 0.00 89 1008.9
20260505151547 23 205 4.8 19.3 0.00 0.00 0.00 89 1008.9
20260505151034 22 184 6.4 19.3 0.00 0.00 0.00 89 1008.9
20260505150534 22 201 6.4 14.5 0.00 0.00 0.00 89 1008.8
20260505140534 22 210 4.8 14.5 0.00 0.00 0.00 90 1008.6